contact:dominique.lefevre@mio.osupytheas.fr, maurice.libes@osupytheas.fr, didier.mallarino@osupytheas.fr
Project:EMSO http://www.emso-fr.org/EMSO-France
Depth: 2436.0 m
Title:EMSO Ligure Ouest : Data MII capteur MICROCAT
DateTime_Computer,Latitude,Longitude,Temperature,Conductivity,Pressure,DateTime_Instrument
DateTime_Computer,Latitude,Longitude,degC,S m-1,dbar,DateTime_Instrument
2023-05-20T00:02:54Z,42.805,6.029,13.3017,4.60076,2470.67,2023-5-20T02:05:06Z
2023-05-20T00:05:57Z,42.805,6.029,13.3022,4.60075,2470.67,2023-5-20T02:08:09Z
2023-05-20T00:09:00Z,42.805,6.029,13.3019,4.60075,2470.73,2023-5-20T02:11:12Z
2023-05-20T00:12:03Z,42.805,6.029,13.3018,4.60074,2470.693,2023-5-20T02:14:15Z
2023-05-20T00:15:06Z,42.805,6.029,13.3021,4.60075,2470.707,2023-5-20T02:17:18Z
2023-05-20T00:18:09Z,42.805,6.029,13.3020,4.60074,2470.684,2023-5-20T02:20:21Z
2023-05-20T00:21:12Z,42.805,6.029,13.3019,4.60073,2470.67,2023-5-20T02:23:24Z
2023-05-20T00:24:15Z,42.805,6.029,13.3019,4.60073,2470.67,2023-5-20T02:26:27Z
2023-05-20T00:27:18Z,42.805,6.029,13.3019,4.60072,2470.656,2023-5-20T02:29:30Z
2023-05-20T00:30:21Z,42.805,6.029,13.3021,4.60075,2470.693,2023-5-20T02:32:33Z
2023-05-20T00:33:24Z,42.805,6.029,13.3015,4.60073,2470.693,2023-5-20T02:35:36Z
2023-05-20T00:36:28Z,42.805,6.029,13.3018,4.60074,2470.67,2023-5-20T02:38:39Z
2023-05-20T00:39:31Z,42.805,6.029,13.3019,4.60074,2470.67,2023-5-20T02:41:43Z
2023-05-20T00:42:34Z,42.805,6.029,13.3019,4.60075,2470.707,2023-5-20T02:44:46Z
2023-05-20T00:45:37Z,42.805,6.029,13.3021,4.60075,2470.693,2023-5-20T02:47:49Z
2023-05-20T00:48:40Z,42.805,6.029,13.3020,4.60074,2470.684,2023-5-20T02:50:52Z
2023-05-20T00:51:43Z,42.805,6.029,13.3016,4.60074,2470.646,2023-5-20T02:53:55Z
2023-05-20T00:54:46Z,42.805,6.029,13.3018,4.60074,2470.684,2023-5-20T02:56:58Z
2023-05-20T00:57:49Z,42.805,6.029,13.3019,4.60074,2470.614,2023-5-20T03:00:01Z
2023-05-20T01:00:52Z,42.805,6.029,13.3020,4.60074,2470.646,2023-5-20T03:03:04Z
2023-05-20T01:03:55Z,42.805,6.029,13.3018,4.60074,2470.646,2023-5-20T03:06:07Z
2023-05-20T01:06:58Z,42.805,6.029,13.3015,4.60075,2470.646,2023-5-20T03:09:10Z
2023-05-20T01:10:01Z,42.805,6.029,13.3021,4.60074,2470.624,2023-5-20T03:12:13Z
2023-05-20T01:13:05Z,42.805,6.029,13.3015,4.60074,2470.661,2023-5-20T03:15:16Z
2023-05-20T01:16:08Z,42.805,6.029,13.3024,4.60076,2470.646,2023-5-20T03:18:19Z
2023-05-20T01:19:11Z,42.805,6.029,13.3023,4.60074,2470.637,2023-5-20T03:21:23Z
2023-05-20T01:22:14Z,42.805,6.029,13.3019,4.60073,2470.624,2023-5-20T03:24:26Z
2023-05-20T01:25:17Z,42.805,6.029,13.3015,4.60074,2470.624,2023-5-20T03:27:29Z
2023-05-20T01:28:20Z,42.805,6.029,13.3021,4.60073,2470.624,2023-5-20T03:30:32Z
2023-05-20T01:31:23Z,42.805,6.029,13.3018,4.60073,2470.637,2023-5-20T03:33:35Z
2023-05-20T01:34:26Z,42.805,6.029,13.3018,4.60074,2470.614,2023-5-20T03:36:38Z
2023-05-20T01:37:29Z,42.805,6.029,13.3021,4.60074,2470.637,2023-5-20T03:39:41Z
2023-05-20T01:40:32Z,42.805,6.029,13.3018,4.60074,2470.614,2023-5-20T03:42:44Z
2023-05-20T01:43:35Z,42.805,6.029,13.3020,4.60074,2470.624,2023-5-20T03:45:47Z
2023-05-20T01:46:38Z,42.805,6.029,13.3021,4.60076,2470.624,2023-5-20T03:48:50Z
2023-05-20T01:49:41Z,42.805,6.029,13.3021,4.60074,2470.646,2023-5-20T03:51:53Z
2023-05-20T01:52:45Z,42.805,6.029,13.3021,4.60073,2470.646,2023-5-20T03:54:56Z
2023-05-20T01:55:48Z,42.805,6.029,13.3017,4.60074,2470.637,2023-5-20T03:58:00Z
2023-05-20T01:58:51Z,42.805,6.029,13.3018,4.60077,2470.646,2023-5-20T04:01:03Z
2023-05-20T02:01:54Z,42.805,6.029,13.3021,4.60074,2470.624,2023-5-20T04:04:06Z
2023-05-20T02:04:57Z,42.805,6.029,13.3019,4.60073,2470.624,2023-5-20T04:07:09Z
2023-05-20T02:08:00Z,42.805,6.029,13.3021,4.60074,2470.614,2023-5-20T04:10:12Z
2023-05-20T02:11:03Z,42.805,6.029,13.3020,4.60074,2470.646,2023-5-20T04:13:15Z
2023-05-20T02:14:06Z,42.805,6.029,13.3022,4.60076,2470.614,2023-5-20T04:16:18Z
2023-05-20T02:17:09Z,42.805,6.029,13.3019,4.60074,2470.67,2023-5-20T04:19:21Z
2023-05-20T02:20:12Z,42.805,6.029,13.3021,4.60072,2470.6,2023-5-20T04:22:24Z
2023-05-20T02:23:15Z,42.805,6.029,13.3021,4.60073,2470.6,2023-5-20T04:25:27Z
2023-05-20T02:26:18Z,42.805,6.029,13.3019,4.60074,2470.624,2023-5-20T04:28:30Z
2023-05-20T02:29:21Z,42.805,6.029,13.3021,4.60074,2470.614,2023-5-20T04:31:33Z
2023-05-20T02:32:25Z,42.805,6.029,13.3019,4.60073,2470.646,2023-5-20T04:34:36Z
2023-05-20T02:35:28Z,42.805,6.029,13.3019,4.60076,2470.624,2023-5-20T04:37:40Z
2023-05-20T02:38:31Z,42.805,6.029,13.3018,4.60073,2470.624,2023-5-20T04:40:43Z
2023-05-20T02:41:34Z,42.805,6.029,13.3020,4.60074,2470.637,2023-5-20T04:43:46Z
2023-05-20T02:44:37Z,42.805,6.029,13.3018,4.60074,2470.624,2023-5-20T04:46:49Z
2023-05-20T02:47:40Z,42.805,6.029,13.3021,4.60074,2470.637,2023-5-20T04:49:52Z
2023-05-20T02:50:43Z,42.805,6.029,13.3019,4.60077,2470.624,2023-5-20T04:52:55Z
2023-05-20T02:53:46Z,42.805,6.029,13.3019,4.60073,2470.6,2023-5-20T04:55:58Z
2023-05-20T02:56:49Z,42.805,6.029,13.3022,4.60073,2470.637,2023-5-20T04:59:01Z
2023-05-20T02:59:52Z,42.805,6.029,13.3016,4.60074,2470.6,2023-5-20T05:02:04Z
2023-05-20T03:02:55Z,42.805,6.029,13.3019,4.60074,2470.646,2023-5-20T05:05:07Z
2023-05-20T03:05:58Z,42.805,6.029,13.3022,4.60074,2470.624,2023-5-20T05:08:10Z
2023-05-20T03:09:02Z,42.805,6.029,13.3020,4.60074,2470.637,2023-5-20T05:11:13Z
2023-05-20T03:12:05Z,42.805,6.029,13.3019,4.60075,2470.577,2023-5-20T05:14:16Z
2023-05-20T03:15:08Z,42.805,6.029,13.3024,4.60074,2470.646,2023-5-20T05:17:20Z
2023-05-20T03:18:11Z,42.805,6.029,13.3021,4.60075,2470.624,2023-5-20T05:20:23Z
2023-05-20T03:21:14Z,42.805,6.029,13.3020,4.60074,2470.624,2023-5-20T05:23:26Z
2023-05-20T03:24:17Z,42.805,6.029,13.3020,4.60075,2470.6,2023-5-20T05:26:29Z
2023-05-20T03:27:20Z,42.805,6.029,13.3021,4.60075,2470.624,2023-5-20T05:29:32Z
2023-05-20T03:30:23Z,42.805,6.029,13.3019,4.60074,2470.6,2023-5-20T05:32:35Z
2023-05-20T03:33:26Z,42.805,6.029,13.3021,4.60073,2470.646,2023-5-20T05:35:38Z
2023-05-20T03:36:29Z,42.805,6.029,13.3021,4.60076,2470.614,2023-5-20T05:38:41Z
2023-05-20T03:39:32Z,42.805,6.029,13.3020,4.60074,2470.563,2023-5-20T05:41:44Z
2023-05-20T03:42:35Z,42.805,6.029,13.3021,4.60074,2470.614,2023-5-20T05:44:47Z
2023-05-20T03:45:38Z,42.805,6.029,13.3019,4.60075,2470.637,2023-5-20T05:47:50Z
2023-05-20T03:48:42Z,42.805,6.029,13.3019,4.60075,2470.614,2023-5-20T05:50:53Z
2023-05-20T03:51:45Z,42.805,6.029,13.3018,4.60075,2470.646,2023-5-20T05:53:57Z
2023-05-20T03:54:48Z,42.805,6.029,13.3016,4.60074,2470.646,2023-5-20T05:57:00Z
2023-05-20T03:57:51Z,42.805,6.029,13.3015,4.60073,2470.637,2023-5-20T06:00:03Z
2023-05-20T04:00:54Z,42.805,6.029,13.3020,4.60074,2470.6,2023-5-20T06:03:06Z
2023-05-20T04:03:57Z,42.805,6.029,13.3019,4.60074,2470.637,2023-5-20T06:06:09Z
2023-05-20T04:07:00Z,42.805,6.029,13.3020,4.60074,2470.624,2023-5-20T06:09:12Z
2023-05-20T04:10:03Z,42.805,6.029,13.3020,4.60074,2470.637,2023-5-20T06:12:15Z
2023-05-20T04:13:06Z,42.805,6.029,13.3021,4.60075,2470.637,2023-5-20T06:15:18Z
2023-05-20T04:16:09Z,42.805,6.029,13.3020,4.60075,2470.646,2023-5-20T06:18:21Z
2023-05-20T04:19:12Z,42.805,6.029,13.3020,4.60074,2470.67,2023-5-20T06:21:24Z
2023-05-20T04:22:15Z,42.805,6.029,13.3021,4.60074,2470.646,2023-5-20T06:24:27Z
2023-05-20T04:25:18Z,42.805,6.029,13.3023,4.60077,2470.684,2023-5-20T06:27:30Z
2023-05-20T04:28:22Z,42.805,6.029,13.3021,4.60076,2470.67,2023-5-20T06:30:33Z
2023-05-20T04:31:25Z,42.805,6.029,13.3021,4.60074,2470.693,2023-5-20T06:33:37Z
2023-05-20T04:34:28Z,42.805,6.029,13.3018,4.60074,2470.684,2023-5-20T06:36:40Z
2023-05-20T04:37:31Z,42.805,6.029,13.3020,4.60073,2470.67,2023-5-20T06:39:43Z
2023-05-20T04:40:34Z,42.805,6.029,13.3017,4.60075,2470.684,2023-5-20T06:42:46Z
2023-05-20T04:43:37Z,42.805,6.029,13.3019,4.60074,2470.684,2023-5-20T06:45:49Z
2023-05-20T04:46:40Z,42.805,6.029,13.3015,4.60076,2470.67,2023-5-20T06:48:52Z
2023-05-20T04:49:43Z,42.805,6.029,13.3019,4.60074,2470.67,2023-5-20T06:51:55Z
2023-05-20T04:52:46Z,42.805,6.029,13.3019,4.60074,2470.693,2023-5-20T06:54:58Z
2023-05-20T04:55:49Z,42.805,6.029,13.3019,4.60075,2470.693,2023-5-20T06:58:01Z
2023-05-20T04:58:52Z,42.805,6.029,13.3019,4.60075,2470.717,2023-5-20T07:01:04Z
2023-05-20T05:01:55Z,42.805,6.029,13.3019,4.60075,2470.67,2023-5-20T07:04:07Z
2023-05-20T05:04:59Z,42.805,6.029,13.3020,4.60075,2470.646,2023-5-20T07:07:10Z
2023-05-20T05:08:02Z,42.805,6.029,13.3021,4.60077,2470.693,2023-5-20T07:10:13Z
2023-05-20T05:11:05Z,42.805,6.029,13.3022,4.60075,2470.693,2023-5-20T07:13:17Z
2023-05-20T05:14:08Z,42.805,6.029,13.3019,4.60076,2470.717,2023-5-20T07:16:20Z
2023-05-20T05:17:11Z,42.805,6.029,13.3016,4.60076,2470.67,2023-5-20T07:19:23Z
2023-05-20T05:20:14Z,42.805,6.029,13.3021,4.60084,2470.707,2023-5-20T07:22:26Z
2023-05-20T05:23:17Z,42.805,6.029,13.3019,4.60077,2470.717,2023-5-20T07:25:29Z
2023-05-20T05:26:20Z,42.805,6.029,13.3020,4.60079,2470.717,2023-5-20T07:28:32Z
2023-05-20T05:29:23Z,42.805,6.029,13.3016,4.60076,2470.73,2023-5-20T07:31:35Z
2023-05-20T05:32:26Z,42.805,6.029,13.3019,4.60077,2470.73,2023-5-20T07:34:38Z
2023-05-20T05:35:29Z,42.805,6.029,13.3022,4.60078,2470.717,2023-5-20T07:37:41Z
2023-05-20T05:38:32Z,42.805,6.029,13.3021,4.60078,2470.73,2023-5-20T07:40:44Z
2023-05-20T05:41:35Z,42.805,6.029,13.3018,4.60075,2470.74,2023-5-20T07:43:47Z
2023-05-20T05:44:39Z,42.805,6.029,13.3020,4.60077,2470.73,2023-5-20T07:46:50Z
2023-05-20T05:47:42Z,42.805,6.029,13.3016,4.60077,2470.74,2023-5-20T07:49:53Z
2023-05-20T05:50:45Z,42.805,6.029,13.3021,4.60075,2470.754,2023-5-20T07:52:57Z
2023-05-20T05:53:48Z,42.805,6.029,13.3019,4.60076,2470.73,2023-5-20T07:56:00Z
2023-05-20T05:56:51Z,42.805,6.029,13.3021,4.60076,2470.717,2023-5-20T07:59:03Z
2023-05-20T05:59:54Z,42.805,6.029,13.3018,4.60077,2470.717,2023-5-20T08:02:06Z
2023-05-20T06:02:57Z,42.805,6.029,13.3022,4.60076,2470.717,2023-5-20T08:05:09Z
2023-05-20T06:06:00Z,42.805,6.029,13.3022,4.60076,2470.73,2023-5-20T08:08:12Z
2023-05-20T06:09:03Z,42.805,6.029,13.3019,4.60075,2470.74,2023-5-20T08:11:15Z
2023-05-20T06:12:06Z,42.805,6.029,13.3021,4.60076,2470.74,2023-5-20T08:14:18Z
2023-05-20T06:15:09Z,42.805,6.029,13.3022,4.60075,2470.74,2023-5-20T08:17:21Z
2023-05-20T06:18:12Z,42.805,6.029,13.3020,4.60074,2470.73,2023-5-20T08:20:24Z
2023-05-20T06:21:15Z,42.805,6.029,13.3024,4.60074,2470.74,2023-5-20T08:23:27Z
2023-05-20T06:24:19Z,42.805,6.029,13.3019,4.60074,2470.74,2023-5-20T08:26:30Z
2023-05-20T06:27:22Z,42.805,6.029,13.3018,4.60074,2470.754,2023-5-20T08:29:34Z
2023-05-20T06:30:23Z,42.805,6.029,13.3021,4.60074,2470.777,2023-5-20T08:32:35Z
2023-05-20T06:33:26Z,42.805,6.029,13.3021,4.60075,2470.763,2023-5-20T08:35:38Z
2023-05-20T06:36:29Z,42.805,6.029,13.3020,4.60078,2470.777,2023-5-20T08:38:41Z
2023-05-20T06:39:32Z,42.805,6.029,13.3015,4.60074,2470.74,2023-5-20T08:41:44Z
2023-05-20T06:42:35Z,42.805,6.029,13.3021,4.60074,2470.74,2023-5-20T08:44:47Z
2023-05-20T06:45:38Z,42.805,6.029,13.3017,4.60074,2470.754,2023-5-20T08:47:50Z
2023-05-20T06:48:41Z,42.805,6.029,13.3017,4.60075,2470.763,2023-5-20T08:50:53Z
2023-05-20T06:51:44Z,42.805,6.029,13.3016,4.60074,2470.754,2023-5-20T08:53:56Z
2023-05-20T06:54:47Z,42.805,6.029,13.3019,4.60074,2470.763,2023-5-20T08:56:59Z
2023-05-20T06:57:50Z,42.805,6.029,13.3020,4.60076,2470.74,2023-5-20T09:00:02Z
2023-05-20T07:00:53Z,42.805,6.029,13.3019,4.60076,2470.763,2023-5-20T09:03:05Z
2023-05-20T07:03:56Z,42.805,6.029,13.3018,4.60076,2470.74,2023-5-20T09:06:08Z
2023-05-20T07:07:00Z,42.805,6.029,13.3016,4.60074,2470.74,2023-5-20T09:09:11Z
2023-05-20T07:10:03Z,42.805,6.029,13.3019,4.60077,2470.717,2023-5-20T09:12:15Z
2023-05-20T07:13:06Z,42.805,6.029,13.3020,4.60077,2470.754,2023-5-20T09:15:18Z
2023-05-20T07:16:09Z,42.805,6.029,13.3015,4.60074,2470.8,2023-5-20T09:18:21Z
2023-05-20T07:19:12Z,42.805,6.029,13.3017,4.60074,2470.74,2023-5-20T09:21:24Z
2023-05-20T07:22:15Z,42.805,6.029,13.3016,4.60074,2470.754,2023-5-20T09:24:27Z
2023-05-20T07:25:18Z,42.805,6.029,13.3024,4.60074,2470.74,2023-5-20T09:27:30Z
2023-05-20T07:28:21Z,42.805,6.029,13.3019,4.60075,2470.717,2023-5-20T09:30:33Z
2023-05-20T07:31:24Z,42.805,6.029,13.3019,4.60075,2470.717,2023-5-20T09:33:36Z
2023-05-20T07:34:27Z,42.805,6.029,13.3021,4.60077,2470.754,2023-5-20T09:36:39Z
2023-05-20T07:37:30Z,42.805,6.029,13.3021,4.60075,2470.717,2023-5-20T09:39:42Z
2023-05-20T07:40:34Z,42.805,6.029,13.3015,4.60075,2470.717,2023-5-20T09:42:45Z
2023-05-20T07:43:37Z,42.805,6.029,13.3022,4.60075,2470.74,2023-5-20T09:45:48Z
2023-05-20T07:46:40Z,42.805,6.029,13.3019,4.60074,2470.717,2023-5-20T09:48:52Z
2023-05-20T07:49:43Z,42.805,6.029,13.3021,4.60074,2470.74,2023-5-20T09:51:55Z
2023-05-20T07:52:46Z,42.805,6.029,13.3019,4.60074,2470.693,2023-5-20T09:54:58Z
2023-05-20T07:55:49Z,42.805,6.029,13.3019,4.60074,2470.73,2023-5-20T09:58:01Z
2023-05-20T07:58:52Z,42.805,6.029,13.3018,4.60076,2470.754,2023-5-20T10:01:04Z
2023-05-20T08:01:55Z,42.805,6.029,13.3017,4.60077,2470.717,2023-5-20T10:04:07Z
2023-05-20T08:04:58Z,42.805,6.029,13.3016,4.60076,2470.754,2023-5-20T10:07:10Z
2023-05-20T08:08:01Z,42.805,6.029,13.3020,4.60075,2470.717,2023-5-20T10:10:13Z
2023-05-20T08:11:04Z,42.805,6.029,13.3020,4.60074,2470.74,2023-5-20T10:13:16Z
2023-05-20T08:14:07Z,42.805,6.029,13.3020,4.60074,2470.717,2023-5-20T10:16:19Z
2023-05-20T08:17:10Z,42.805,6.029,13.3024,4.60074,2470.74,2023-5-20T10:19:22Z
2023-05-20T08:20:14Z,42.805,6.029,13.3021,4.60074,2470.717,2023-5-20T10:22:25Z
2023-05-20T08:23:17Z,42.805,6.029,13.3021,4.60075,2470.693,2023-5-20T10:25:29Z
2023-05-20T08:26:20Z,42.805,6.029,13.3020,4.60075,2470.717,2023-5-20T10:28:32Z
2023-05-20T08:29:23Z,42.805,6.029,13.3017,4.60074,2470.707,2023-5-20T10:31:35Z
2023-05-20T08:32:26Z,42.805,6.029,13.3023,4.60074,2470.707,2023-5-20T10:34:38Z
2023-05-20T08:35:29Z,42.805,6.029,13.3017,4.60074,2470.717,2023-5-20T10:37:41Z
2023-05-20T08:38:32Z,42.805,6.029,13.3022,4.60074,2470.707,2023-5-20T10:40:44Z
2023-05-20T08:41:35Z,42.805,6.029,13.3021,4.60075,2470.67,2023-5-20T10:43:47Z
2023-05-20T08:44:38Z,42.805,6.029,13.3020,4.60074,2470.693,2023-5-20T10:46:50Z
2023-05-20T08:47:41Z,42.805,6.029,13.3020,4.60076,2470.693,2023-5-20T10:49:53Z
2023-05-20T08:50:44Z,42.805,6.029,13.3018,4.60079,2470.646,2023-5-20T10:52:56Z
2023-05-20T08:53:47Z,42.805,6.029,13.3019,4.60077,2470.693,2023-5-20T10:55:59Z
2023-05-20T08:56:51Z,42.805,6.029,13.3015,4.60077,2470.74,2023-5-20T10:59:02Z
2023-05-20T08:59:54Z,42.805,6.029,13.3015,4.60076,2470.67,2023-5-20T11:02:06Z
2023-05-20T09:02:57Z,42.805,6.029,13.3019,4.60076,2470.67,2023-5-20T11:05:09Z
2023-05-20T09:06:00Z,42.805,6.029,13.3017,4.60075,2470.67,2023-5-20T11:08:12Z
2023-05-20T09:09:03Z,42.805,6.029,13.3019,4.60075,2470.646,2023-5-20T11:11:15Z
2023-05-20T09:12:06Z,42.805,6.029,13.3019,4.60077,2470.693,2023-5-20T11:14:18Z
2023-05-20T09:15:09Z,42.805,6.029,13.3019,4.60077,2470.693,2023-5-20T11:17:21Z
2023-05-20T09:18:12Z,42.805,6.029,13.3023,4.60074,2470.693,2023-5-20T11:20:24Z
2023-05-20T09:21:15Z,42.805,6.029,13.3016,4.60075,2470.646,2023-5-20T11:23:27Z
2023-05-20T09:24:18Z,42.805,6.029,13.3019,4.60074,2470.707,2023-5-20T11:26:30Z
2023-05-20T09:27:21Z,42.805,6.029,13.3022,4.60074,2470.67,2023-5-20T11:29:33Z
2023-05-20T09:30:24Z,42.805,6.029,13.3019,4.60074,2470.67,2023-5-20T11:32:36Z
2023-05-20T09:33:28Z,42.805,6.029,13.3017,4.60074,2470.646,2023-5-20T11:35:39Z
2023-05-20T09:36:31Z,42.805,6.029,13.3019,4.60074,2470.684,2023-5-20T11:38:43Z
2023-05-20T09:39:34Z,42.805,6.029,13.3021,4.60081,2470.661,2023-5-20T11:41:46Z
2023-05-20T09:42:37Z,42.805,6.029,13.3018,4.60074,2470.646,2023-5-20T11:44:49Z
2023-05-20T09:45:40Z,42.805,6.029,13.3019,4.60075,2470.661,2023-5-20T11:47:52Z
2023-05-20T09:48:43Z,42.805,6.029,13.3017,4.60074,2470.637,2023-5-20T11:50:55Z
2023-05-20T09:51:46Z,42.805,6.029,13.3020,4.60074,2470.67,2023-5-20T11:53:58Z
2023-05-20T09:54:49Z,42.805,6.029,13.3019,4.60075,2470.661,2023-5-20T11:57:01Z
2023-05-20T09:57:52Z,42.805,6.029,13.3019,4.60074,2470.646,2023-5-20T12:00:04Z
2023-05-20T10:00:55Z,42.805,6.029,13.3020,4.60076,2470.646,2023-5-20T12:03:07Z
2023-05-20T10:03:58Z,42.805,6.029,13.3018,4.60074,2470.637,2023-5-20T12:06:10Z
2023-05-20T10:07:01Z,42.805,6.029,13.3023,4.60074,2470.61,2023-5-20T12:09:13Z
2023-05-20T10:10:05Z,42.805,6.029,13.3019,4.60074,2470.646,2023-5-20T12:12:16Z
2023-05-20T10:13:08Z,42.805,6.029,13.3020,4.60074,2470.646,2023-5-20T12:15:20Z
2023-05-20T10:16:11Z,42.805,6.029,13.3017,4.60074,2470.624,2023-5-20T12:18:23Z
2023-05-20T10:19:14Z,42.805,6.029,13.3019,4.60073,2470.637,2023-5-20T12:21:26Z
2023-05-20T10:22:17Z,42.805,6.029,13.3021,4.60074,2470.624,2023-5-20T12:24:29Z
2023-05-20T10:25:20Z,42.805,6.029,13.3019,4.60075,2470.624,2023-5-20T12:27:32Z
2023-05-20T10:28:23Z,42.805,6.029,13.3020,4.60074,2470.624,2023-5-20T12:30:35Z
2023-05-20T10:31:26Z,42.805,6.029,13.3019,4.60074,2470.591,2023-5-20T12:33:38Z
2023-05-20T10:34:29Z,42.805,6.029,13.3017,4.60077,2470.661,2023-5-20T12:36:41Z
2023-05-20T10:37:32Z,42.805,6.029,13.3018,4.60074,2470.637,2023-5-20T12:39:44Z
2023-05-20T10:40:35Z,42.805,6.029,13.3018,4.60074,2470.6,2023-5-20T12:42:47Z
2023-05-20T10:43:38Z,42.805,6.029,13.3021,4.60074,2470.624,2023-5-20T12:45:50Z
2023-05-20T10:46:42Z,42.805,6.029,13.3015,4.60074,2470.614,2023-5-20T12:48:53Z
2023-05-20T10:49:45Z,42.805,6.029,13.3017,4.60074,2470.6,2023-5-20T12:51:57Z
2023-05-20T10:52:48Z,42.805,6.029,13.3019,4.60076,2470.624,2023-5-20T12:55:00Z
2023-05-20T10:55:51Z,42.805,6.029,13.3019,4.60075,2470.6,2023-5-20T12:58:03Z
2023-05-20T10:58:54Z,42.805,6.029,13.3016,4.60074,2470.614,2023-5-20T13:01:06Z
2023-05-20T11:01:57Z,42.805,6.029,13.3016,4.60074,2470.539,2023-5-20T13:04:09Z
2023-05-20T11:05:00Z,42.805,6.029,13.3022,4.60075,2470.624,2023-5-20T13:07:12Z
2023-05-20T11:08:03Z,42.805,6.029,13.3019,4.60074,2470.6,2023-5-20T13:10:15Z
2023-05-20T11:11:06Z,42.805,6.029,13.3018,4.60074,2470.637,2023-5-20T13:13:18Z
2023-05-20T11:14:09Z,42.805,6.029,13.3017,4.60078,2470.577,2023-5-20T13:16:21Z
2023-05-20T11:17:12Z,42.805,6.029,13.3018,4.60074,2470.6,2023-5-20T13:19:24Z
2023-05-20T11:20:15Z,42.805,6.029,13.3021,4.60075,2470.591,2023-5-20T13:22:27Z
2023-05-20T11:23:19Z,42.805,6.029,13.3020,4.60074,2470.614,2023-5-20T13:25:30Z
2023-05-20T11:26:22Z,42.805,6.029,13.3023,4.60074,2470.6,2023-5-20T13:28:34Z
2023-05-20T11:29:25Z,42.805,6.029,13.3019,4.60073,2470.553,2023-5-20T13:31:37Z
2023-05-20T11:32:28Z,42.805,6.029,13.3018,4.60074,2470.591,2023-5-20T13:34:40Z
2023-05-20T11:35:31Z,42.805,6.029,13.3019,4.60074,2470.577,2023-5-20T13:37:43Z
2023-05-20T11:38:34Z,42.805,6.029,13.3019,4.60073,2470.6,2023-5-20T13:40:46Z
2023-05-20T11:41:37Z,42.805,6.029,13.3021,4.60074,2470.577,2023-5-20T13:43:49Z
2023-05-20T11:44:40Z,42.805,6.029,13.3017,4.60074,2470.6,2023-5-20T13:46:52Z
2023-05-20T11:47:43Z,42.805,6.029,13.3020,4.60074,2470.577,2023-5-20T13:49:55Z
2023-05-20T11:50:46Z,42.805,6.029,13.3016,4.60074,2470.591,2023-5-20T13:52:58Z
2023-05-20T11:53:49Z,42.805,6.029,13.3017,4.60074,2470.553,2023-5-20T13:56:01Z
2023-05-20T11:56:52Z,42.805,6.029,13.3024,4.60074,2470.577,2023-5-20T13:59:04Z
2023-05-20T11:59:56Z,42.805,6.029,13.3018,4.60074,2470.567,2023-5-20T14:02:07Z
2023-05-20T12:02:59Z,42.805,6.029,13.3019,4.60075,2470.553,2023-5-20T14:05:11Z
2023-05-20T12:06:02Z,42.805,6.029,13.3021,4.60073,2470.567,2023-5-20T14:08:14Z
2023-05-20T12:09:05Z,42.805,6.029,13.3019,4.60074,2470.553,2023-5-20T14:11:17Z
2023-05-20T12:12:08Z,42.805,6.029,13.3021,4.60076,2470.544,2023-5-20T14:14:20Z
2023-05-20T12:15:11Z,42.805,6.029,13.3020,4.60073,2470.567,2023-5-20T14:17:23Z
2023-05-20T12:18:14Z,42.805,6.029,13.3016,4.60073,2470.553,2023-5-20T14:20:26Z
2023-05-20T12:21:17Z,42.805,6.029,13.3014,4.60073,2470.553,2023-5-20T14:23:29Z
2023-05-20T12:24:20Z,42.805,6.029,13.3017,4.60073,2470.591,2023-5-20T14:26:32Z
2023-05-20T12:27:23Z,42.805,6.029,13.3021,4.60072,2470.553,2023-5-20T14:29:35Z
2023-05-20T12:30:27Z,42.805,6.029,13.3017,4.60072,2470.553,2023-5-20T14:32:39Z
2023-05-20T12:33:30Z,42.805,6.029,13.3016,4.60074,2470.553,2023-5-20T14:35:42Z
2023-05-20T12:36:33Z,42.805,6.029,13.3019,4.60073,2470.53,2023-5-20T14:38:45Z
2023-05-20T12:39:36Z,42.805,6.029,13.3022,4.60074,2470.53,2023-5-20T14:41:48Z
2023-05-20T12:42:39Z,42.805,6.029,13.3019,4.60072,2470.6,2023-5-20T14:44:51Z
2023-05-20T12:45:42Z,42.805,6.029,13.3021,4.60075,2470.567,2023-5-20T14:47:54Z
2023-05-20T12:48:45Z,42.805,6.029,13.3024,4.60074,2470.577,2023-5-20T14:50:57Z
2023-05-20T12:51:48Z,42.805,6.029,13.3020,4.60072,2470.553,2023-5-20T14:54:00Z
2023-05-20T12:54:51Z,42.805,6.029,13.3021,4.60072,2470.553,2023-5-20T14:57:03Z
2023-05-20T12:57:55Z,42.805,6.029,13.3017,4.60072,2470.553,2023-5-20T15:00:06Z
2023-05-20T13:00:58Z,42.805,6.029,13.3017,4.60073,2470.577,2023-5-20T15:03:10Z
2023-05-20T13:04:01Z,42.805,6.029,13.3019,4.60074,2470.553,2023-5-20T15:06:13Z
2023-05-20T13:07:04Z,42.805,6.029,13.3019,4.60074,2470.567,2023-5-20T15:09:16Z
2023-05-20T13:10:07Z,42.805,6.029,13.3018,4.60072,2470.544,2023-5-20T15:12:19Z
2023-05-20T13:13:10Z,42.805,6.029,13.3021,4.60074,2470.553,2023-5-20T15:15:22Z
2023-05-20T13:16:13Z,42.805,6.029,13.3015,4.60073,2470.553,2023-5-20T15:18:25Z
2023-05-20T13:19:16Z,42.805,6.029,13.3019,4.60074,2470.553,2023-5-20T15:21:28Z
2023-05-20T13:22:19Z,42.805,6.029,13.3015,4.60072,2470.53,2023-5-20T15:24:31Z
2023-05-20T13:25:22Z,42.805,6.029,13.3018,4.60072,2470.544,2023-5-20T15:27:34Z
2023-05-20T13:28:25Z,42.805,6.029,13.3019,4.60073,2470.544,2023-5-20T15:30:37Z
2023-05-20T13:31:28Z,42.805,6.029,13.3019,4.60074,2470.544,2023-5-20T15:33:40Z
2023-05-20T13:34:32Z,42.805,6.029,13.3021,4.60073,2470.544,2023-5-20T15:36:43Z
2023-05-20T13:37:35Z,42.805,6.029,13.3019,4.60072,2470.553,2023-5-20T15:39:47Z
2023-05-20T13:40:38Z,42.805,6.029,13.3013,4.60074,2470.53,2023-5-20T15:42:50Z
2023-05-20T13:43:41Z,42.805,6.029,13.3019,4.60073,2470.507,2023-5-20T15:45:53Z
2023-05-20T13:46:44Z,42.805,6.029,13.3020,4.60073,2470.567,2023-5-20T15:48:56Z
2023-05-20T13:49:47Z,42.805,6.029,13.3016,4.60073,2470.53,2023-5-20T15:51:59Z
2023-05-20T13:52:50Z,42.805,6.029,13.3017,4.60072,2470.544,2023-5-20T15:55:02Z
2023-05-20T13:55:53Z,42.805,6.029,13.3023,4.60073,2470.53,2023-5-20T15:58:05Z
2023-05-20T13:58:56Z,42.805,6.029,13.3019,4.60074,2470.53,2023-5-20T16:01:08Z
2023-05-20T14:01:59Z,42.805,6.029,13.3017,4.60072,2470.53,2023-5-20T16:04:11Z
2023-05-20T14:05:02Z,42.805,6.029,13.3019,4.60072,2470.507,2023-5-20T16:07:14Z
2023-05-20T14:08:05Z,42.805,6.029,13.3019,4.60072,2470.507,2023-5-20T16:10:17Z
2023-05-20T14:11:09Z,42.805,6.029,13.3018,4.60072,2470.553,2023-5-20T16:13:20Z
2023-05-20T14:14:12Z,42.805,6.029,13.3019,4.60072,2470.507,2023-5-20T16:16:24Z
2023-05-20T14:17:15Z,42.805,6.029,13.3014,4.60072,2470.52,2023-5-20T16:19:27Z
2023-05-20T14:20:18Z,42.805,6.029,13.3017,4.60073,2470.483,2023-5-20T16:22:30Z
2023-05-20T14:23:21Z,42.805,6.029,13.3018,4.60072,2470.544,2023-5-20T16:25:33Z
2023-05-20T14:26:24Z,42.805,6.029,13.3014,4.60072,2470.544,2023-5-20T16:28:36Z
2023-05-20T14:29:27Z,42.805,6.029,13.3016,4.60071,2470.53,2023-5-20T16:31:39Z
2023-05-20T14:32:31Z,42.805,6.029,13.3021,4.60072,2470.507,2023-5-20T16:34:43Z
2023-05-20T14:35:34Z,42.805,6.029,13.3020,4.60072,2470.507,2023-5-20T16:37:46Z
2023-05-20T14:38:37Z,42.805,6.029,13.3021,4.60073,2470.52,2023-5-20T16:40:49Z
2023-05-20T14:41:40Z,42.805,6.029,13.3015,4.60072,2470.53,2023-5-20T16:43:52Z
2023-05-20T14:44:43Z,42.805,6.029,13.3017,4.60073,2470.507,2023-5-20T16:46:55Z
2023-05-20T14:47:46Z,42.805,6.029,13.3019,4.60072,2470.567,2023-5-20T16:49:58Z
2023-05-20T14:50:49Z,42.805,6.029,13.3019,4.60072,2470.53,2023-5-20T16:53:01Z
2023-05-20T14:53:52Z,42.805,6.029,13.3015,4.60074,2470.497,2023-5-20T16:56:04Z
2023-05-20T14:56:56Z,42.805,6.029,13.3015,4.60072,2470.544,2023-5-20T16:59:07Z
2023-05-20T14:59:59Z,42.805,6.029,13.3022,4.60072,2470.544,2023-5-20T17:02:11Z
2023-05-20T15:03:02Z,42.805,6.029,13.3021,4.60073,2470.53,2023-5-20T17:05:14Z
2023-05-20T15:06:05Z,42.805,6.029,13.3019,4.60072,2470.553,2023-5-20T17:08:17Z
2023-05-20T15:09:08Z,42.805,6.029,13.3017,4.60072,2470.507,2023-5-20T17:11:20Z
2023-05-20T15:12:11Z,42.805,6.029,13.3018,4.60072,2470.553,2023-5-20T17:14:23Z
2023-05-20T15:15:14Z,42.805,6.029,13.3020,4.60072,2470.544,2023-5-20T17:17:26Z